User: anonymous   Login
Location: Unspecified
(0.0000°N, 0.0000°E)
Time: 11:16:12
(UTC+00:00)
Language:

TIGRISAT - Orbit

View from above orbital plane
View from above orbital plane
View from above satellite
View from above satellite

Ground track
Ground track

The orbit data is extracted from the following two-line orbital elements,

1 40043U 14033AK  19347.85233188 +.00000098 +00000-0 +21937-4 0  9997
2 40043 097.7308 207.8421 0058676 241.0787 118.4530 14.74321314294559
Epoch (UTC): 13 December 2019 20:27:21
Eccentricity: 0.0058676
inclination: 97.7308°
perigee height: 606 km
apogee height: 688 km
right ascension of ascending node: 207.8421°
argument of perigee: 241.0787°
revolutions per day: 14.74321314
mean anomaly at epoch: 118.4530°
orbit number at epoch: 29455

The dashed part of the orbit path shows where the satellite is in the earth's shadow,  

DLR